Preview of NWS' New Version of Forecast
This preview is not operational and should not be used for support decisions.

Regional Weather Roundup (RWR)

Issued by Gray - Portland, ME (GYX)

                            
000
ASUS41 KGYX 190510
RWRGYX
WEATHER ROUNDUP FOR MAINE AND NEW HAMPSHIRE
NATIONAL WEATHER SERVICE GRAY ME
100 AM EDT WED JUN 19 2019

MEZ002-005-006-010-012-015-018-020-021-024-026-027-029-190600-
MAINE
  
CITY           SKY/WX    TMP DP  RH WIND       PRES   REMARKS
PORTLAND       FOG       57  56  96 CALM      29.90F VSB 1/2          
SANFORD        LGT RAIN  59  58  96 CALM      29.91S VSB 1/4          
BAR HARBOR     CLOUDY    57  57 100 CALM      29.91F FOG              
WISCASSET      CLOUDY    60  59  96 S3        29.91F                  
ROCKLAND       FOG       58  58 100 S5        29.90F VSB 3/4          
FRYEBURG       FAIR      51  49  92 CALM      29.91S                  
AUGUSTA        FOG       57  57 100 VRB3      29.91S VSB 3/4          
WATERVILLE     MOCLDY    56  53  90 CALM      29.88F                  
BANGOR         FAIR      55  53  93 S5        29.90F                  
GREENVILLE       N/A     56  49  77 CALM      29.88F                  
MILLINOCKET    FAIR      58  50  75 CALM      29.88F                  
HOULTON        FAIR      57  49  74 S6        29.86F                  
PRESQUE ISLE   FAIR      55  48  77 CALM      29.86F                  
FRENCHVILLE    MOCLDY    59  47  64 SW7       29.84S                  
CARIBOU        FAIR      56  47  71 SW6       29.84S                  
$$

NHZ002-005-008-009-011-012-014-190600-
NEW HAMPSHIRE
  
CITY           SKY/WX    TMP DP  RH WIND       PRES   REMARKS
PORTSMOUTH     FOG       60  60 100 CALM      29.88F VSB 1/8          
ROCHESTER      FOG       60  58  92 CALM      29.90S VSB 1/4          
NASHUA         CLOUDY    64  64 100 NW3       29.90F                  
MANCHESTER     FOG       64  61  90 NE3       29.88S VSB 1            
CONCORD        CLOUDY    60  58  92 CALM      29.90S                  
LACONIA        FAIR      57  56  96 NW3       29.91S                  
PLYMOUTH       FAIR      53  52  95 CALM      29.91F                  
BERLIN         FAIR      50  47  89 CALM      29.92S                  
WHITEFIELD     FAIR      49  47  93 CALM      29.91S                  
JAFFREY        FOG       62  60  93 CALM      29.92S VSB 1/4          
KEENE          CLOUDY    61  60  97 N3        29.90S                  
LEBANON        CLOUDY    61  56  83 CALM      29.89F                  
MT WASHINGTON  PTCLDY    45  37  76 N9          N/A                   
$$

VTZ005-007-008-190600-
VERMONT
  
CITY           SKY/WX    TMP DP  RH WIND       PRES   REMARKS
ST JOHNSBURY     N/A     56  54  93 MISG      29.89F                  
BURLINGTON     FAIR      63  57  81 CALM      29.87S                  
$$

MAZ007-012-024-CTZ003-RIZ002-NYZ038-NYZ072-190600-
SOUTHERN NEW ENGLAND AND NY
  
CITY           SKY/WX    TMP DP  RH WIND       PRES   REMARKS
BOSTON         FOG       62  60  93 CALM      29.89F VSB 1            
WORCESTER      FOG       63  63 100 CALM      29.90F VSB 1/4          
NANTUCKET      FOG      N/A N/A N/A E8        29.85F VSB 1/2          
PROVIDENCE     LGT RAIN  65  58  78 NE5       29.87F                  
HARTFORD       CLOUDY    66  62  87 CALM      29.88F                  
ALBANY         MOCLDY    67  63  87 SE3       29.89S                  
NEW YORK CITY  FOG       65  64  97 NE6       29.89S VSB 1            
$$

ANZ081-ANZ082-ANZ150-NHZ014-MEZ023>029-190600-
COASTAL MARINE OBSERVATIONS
  
STATION/POSITION TIME  TEMP    WIND        PRES    WAVE
                       AIR SEA DIR/SP/G            HT/PER
                 (UTC) (F)     (DEG/KT/KT) (MB)    (FT/S)
ISLE OF SHOALS   0400   59     160/ 10/ 10 1012.0F
JEFFREYS LEDGE   0438      58                N/A     2/ 8
CASHES LEDGE BUO 0450   53 53  160/  6/  8 1012.7F   2/13
GEORGES BANK BUO 0450   54 50   80/ 10/ 12 1013.1F   2/ 7
$$

.............KEY..............
   WCI - WIND CHILL
   TC  - TEMPERATURE IN CELSIUS
   VSB - VISIBILITY IN MILES
   HX  - HEAT INDEX
   FAIR- INDICATES FEW OR NO CLOUDS BELOW 12,000 FT, WITH NO 
         SIGNIFICANT WEATHER AND/OR OBSTRUCTIONS TO VISIBILITY.